Regional Weather Roundup
Issued by NWS

Home | Current Version | Previous Version | Graphics & Text | Print | Product List | Glossary On
Versions: 1 2 3 4 5 6 7 8 9 10 11 12 13 14 15 16 17 18 19 20 21 22 23 24 25 26 27 28 29 30 31 32 33 34 35 36 37 38 39 40 41 42 43 44 45 46 47 48 49 50
473
ASUS43 KOAX 231810
RWRNE

WEATHER ROUNDUP FOR NEBRASKA
NATIONAL WEATHER SERVICE OMAHA NE
100 PM CDT MON OCT 23 2017

NOTES: SATELLITE DATA IS BEING USED TO AUGMENT CLOUD COVER ABOVE
       12000 FEET.
       "FAIR" INDICATES FEW OR NO CLOUDS BELOW 12,000 FEET WITH NO
       SIGNIFICANT WEATHER AND/OR OBSTRUCTIONS TO VISIBILITY.


NEZ001>004-019>022-054>056-231900-
NEBRASKA PANHANDLE

CITY           SKY/WX    TMP DP  RH WIND       PRES   REMARKS
SCOTTSBLUFF    SUNNY     56  20  24 NW26G37   30.40R
6HR MIN TEMP:  46; 6HR MAX TEMP:  56; 6HR PCP: TRACE;

ALLIANCE       SUNNY     54  22  28 N29G37    30.35S
6HR MIN TEMP:  46; 6HR MAX TEMP:  54;

CHADRON        SUNNY     57  17  21 NW33G44   30.35S
6HR MIN TEMP:  42; 6HR MAX TEMP:  57;

GORDON         FAIR      55  21  26 NW28G37   30.29S
6HR MIN TEMP:  37; 6HR MAX TEMP:  56;

KIMBALL        CLOUDY    49  20  31 N20G32    30.41S
SIDNEY         SUNNY     55  21  26 N30G38    30.37S
6HR MIN TEMP:  44; 6HR MAX TEMP:  55;

$$

NEZ057>060-069>072-079>082-231900-
SOUTHWEST NEBRASKA

CITY           SKY/WX    TMP DP  RH WIND       PRES   REMARKS
NORTH PLATTE   SUNNY     59  26  28 NW30G41   30.27S
6HR MIN TEMP:  48; 6HR MAX TEMP:  60; 6HR PCP: TRACE;

IMPERIAL       PTSUNNY   59  16  18 N24G36    30.33R
6HR MIN TEMP:  45; 6HR MAX TEMP:  60;

LEXINGTON      SUNNY     61  27  27 NW31G37   30.23F
MCCOOK         SUNNY     62  29  28 N20G36    30.27S
6HR MIN TEMP:  51; 6HR MAX TEMP:  62;

OGALLALA       SUNNY     60  18  19 NW31G44   30.31S
$$

NEZ005>010-023>029-035>040-094-231900-
NORTH CENTRAL NEBRASKA

CITY           SKY/WX    TMP DP  RH WIND       PRES   REMARKS
VALENTINE      PTSUNNY   58  27  30 NW23G38   30.22R
6HR MIN TEMP:  50; 6HR MAX TEMP:  60;

AINSWORTH      PTSUNNY   56  29  36 NW25G37   30.21S
BROKEN BOW     SUNNY     60  29  30 NW24G38   30.20R
6HR MIN TEMP:  53; 6HR MAX TEMP:  60;

O`NEILL        MOSUNNY   58  32  36 NW30G44   30.14R
ORD            SUNNY     61  29  29 NW31G46   30.15S
6HR MIN TEMP:  53; 6HR MAX TEMP:  61; 6HR PCP: TRACE;

THEDFORD       SUNNY     59  27  29 NW31G40   30.24F
$$

NEZ041-046>049-061>064-073>077-083>087-231900-
SOUTH CENTRAL NEBRASKA

CITY           SKY/WX    TMP DP  RH WIND       PRES   REMARKS
GRAND ISLAND   MOSUNNY   62  31  31 NW33G41   30.14F
6HR MIN TEMP:  56; 6HR MAX TEMP:  63;

AURORA         MOSUNNY   63  30  29 NW26G37   30.13F
HASTINGS       MOSUNNY   61  30  31 NW25G40   30.17S
6HR MIN TEMP:  55; 6HR MAX TEMP:  61;

HEBRON         SUNNY     64  29  26 NW24G37   30.12S
HOLDREGE       SUNNY     60  30  31 N25G35    30.21F
KEARNEY        MOSUNNY   61  27  27 NW30G43   30.19S
YORK           MOSUNNY   63  32  31 N23G37    30.11R
$$

NEZ011>018-030>034-042>045-231900-
NORTHEAST NEBRASKA

CITY           SKY/WX    TMP DP  RH WIND       PRES   REMARKS
NORFOLK        MOSUNNY   61  33  35 NW30G39   30.05F
6HR MIN TEMP:  55; 6HR MAX TEMP:  61; 6HR PCP: TRACE;

ALBION         MOSUNNY   62  33  33 NW26G37   30.11S
BLAIR          CLOUDY    63  35  36 NW28G43   30.00F
COLUMBUS       SUNNY     62  33  33 NW26G38   30.07S
FREMONT        SUNNY     63  34  34 NW28G38   30.04S
TEKAMAH        MOSUNNY   63  33  32 NW30G41   30.00S
6HR MIN TEMP:  54; 6HR MAX TEMP:  64; 6HR PCP: TRACE;

WAYNE          MOSUNNY   60  30  32 NW30G41   30.03F
$$

NEZ050>053-065>068-078-088>093-231900-
SOUTHEAST NEBRASKA

CITY           SKY/WX    TMP DP  RH WIND       PRES   REMARKS
LINCOLN        SUNNY     65  34  31 NW26G39   30.06F
6HR MIN TEMP:  53; 6HR MAX TEMP:  65; 6HR PCP: TRACE;

OMAHA EPPLEY   CLOUDY    64  37  36 NW28G41   29.98F
6HR MIN TEMP:  47; 6HR MAX TEMP:  64; 6HR PCP: TRACE;

BEATRICE       SUNNY     64  36  35 NW35G41   30.07R
FALLS CITY     MOSUNNY   65  36  34 NW30G38   29.98S
6HR MIN TEMP:  42; 6HR MAX TEMP:  65; 6HR PCP: TRACE;

NEBRASKA CITY  CLOUDY    63  38  39 N28G37    30.01S
PLATTSMOUTH    MOSUNNY   62  38  41 NW21G36   30.01S HAZE
$$

NEZ044-045-051>053-067-231900-
OMAHA AREA

CITY           SKY/WX    TMP DP  RH WIND       PRES   REMARKS
OMAHA EPPLEY   CLOUDY    64  37  36 NW28G41   29.98F
6HR MIN TEMP:  47; 6HR MAX TEMP:  64; 6HR PCP: TRACE;

BLAIR          CLOUDY    63  35  36 NW28G43   30.00F
FREMONT        SUNNY     63  34  34 NW28G38   30.04S
MILLARD        MOSUNNY   64  37  36 NW25G32   30.01F
OFFUTT AFB     MOSUNNY   63  37  39 NW26G37   29.99F
PLATTSMOUTH    MOSUNNY   62  38  41 NW21G36   30.01S HAZE
WAHOO          FAIR      64  32  30 NW28G37   30.04S
$$




USA.gov is the U.S. government's official web portal to all federal, state and local government web resources and services.